Tracking 22124 objects as of 23-Jan-2021
HD Live streaming from Space Station
objects crossing your sky now

LEMUR-2-SUSURRUS

Track LEMUR-2-SUSURRUS now!
10-day predictions
LEMUR-2-SUSURRUS is classified as:


NORAD ID: 46502
Int'l Code: 2020-068S
Perigee: 558.2 km
Apogee: 574.8 km
Inclination: 97.7 °
Period: 95.8 minutes
Semi major axis: 6937 km
RCS: Unknown
Launch date: September 28, 2020
Source: United States (US)
Launch site: PLESETSK MISSILE AND SPACE COMPLEX (PKMTR)
aabbcc
Your satellite tracking list
Your tracking list is empty




NASA's NSSDC Master Catalog

Two Line Element Set (TLE):
1 46502U 20068S   21022.78076782  .00001377  00000-0  10838-3 0  9996
2 46502  97.6790 321.0526 0011963 228.8608 131.1587 15.02433580 17386
Source of the keplerian elements: AFSPC